FW6938 Weather Reports


time (UTC)temp
F
wind
direction
speed
knots
gust
knots
rain 1hr
in
rain 24hr
in
rain mn
in
humidity
%
barometer
mb
20260903164539 75 153 3.5 9.6 0.00 0.00 0.00 19 1018.2
20260903150043 62 0 0.0 7.0 0.00 0.00 0.00 26 1018.1
20260903144535 57 0 0.0 1.7 0.00 0.00 0.00 37 1018.0
20260903143037 54 0 0.0 1.7 0.00 0.00 0.00 43 1018.0
20260903141537 54 0 0.0 0.9 0.00 0.00 0.00 40 1017.8
20260903140050 54 0 0.0 0.0 0.00 0.00 0.00 39 1017.7
20260903134542 54 0 0.0 0.0 0.00 0.00 0.00 40 1017.9
20260903133038 55 0 0.0 0.0 0.00 0.00 0.00 39 1017.4
20260903131538 55 0 0.0 0.9 0.00 0.00 0.00 35 1017.4
20260903130038 55 0 0.0 0.9 0.00 0.00 0.00 33 1017.1
20260903124539 54 0 0.0 0.9 0.00 0.00 0.00 31 1017.1
20260903123038 54 0 0.0 0.0 0.00 0.00 0.00 35 1017.1
20260903121534 54 0 0.0 2.6 0.00 0.00 0.00 44 1017.2
20260903120036 53 0 0.0 0.0 0.00 0.00 0.00 40 1016.9
20260903114558 54 0 0.0 0.0 0.00 0.00 0.00 41 1016.8
20260903113038 55 0 0.0 1.7 0.00 0.00 0.00 37 1016.8
20260903111534 55 0 0.0 0.9 0.00 0.00 0.00 40 1016.8
20260903110107 55 242 0.0 1.7 0.00 0.00 0.00 39 1017.0
20260903104539 56 0 0.0 1.7 0.00 0.00 0.00 35 1016.7
20260903103037 57 0 0.0 2.6 0.00 0.00 0.00 33 1016.8
20260903101537 57 0 0.0 1.7 0.00 0.00 0.00 37 1016.6
20260903100035 58 0 0.0 1.7 0.00 0.00 0.00 36 1016.6
20260903094541 60 0 0.0 1.7 0.00 0.00 0.00 33 1016.5
20260903093050 61 0 0.0 2.6 0.00 0.00 0.00 26 1016.7
20260903091537 62 0 0.0 0.9 0.00 0.00 0.00 29 1016.6
20260903090035 64 0 0.0 0.0 0.00 0.00 0.00 23 1016.5
20260903084536 66 0 0.0 6.1 0.00 0.00 0.00 23 1016.5
20260903083036 68 0 0.0 4.3 0.00 0.00 0.00 20 1016.4
20260903081540 69 0 0.0 4.3 0.00 0.00 0.00 19 1016.6
20260903080037 69 265 1.7 8.7 0.00 0.00 0.00 19 1016.5
20260903074555 70 225 0.9 7.8 0.00 0.00 0.00 19 1016.3
20260903073035 70 145 1.7 8.7 0.00 0.00 0.00 18 1016.2
20260903071538 70 140 1.7 8.7 0.00 0.00 0.00 18 1016.2
20260903070038 71 214 0.9 7.8 0.00 0.00 0.00 18 1016.0
20260903064533 71 0 0.9 5.2 0.00 0.00 0.00 20 1015.9
20260903063034 71 215 1.7 5.2 0.00 0.00 0.00 19 1015.9
20260903061537 72 148 1.7 7.8 0.00 0.00 0.00 18 1015.8
20260903060036 73 144 1.7 12.2 0.00 0.00 0.00 18 1015.4
20260903054537 73 150 4.3 10.4 0.00 0.00 0.00 16 1015.5
20260903053037 74 142 2.6 13.0 0.00 0.00 0.00 16 1015.3
20260903051539 74 226 3.5 13.0 0.00 0.00 0.00 16 1015.3
20260903050036 74 138 3.5 13.0 0.00 0.00 0.00 16 1015.4
20260903044536 73 163 2.6 10.4 0.00 0.00 0.00 16 1015.5
20260903043035 73 220 1.7 7.8 0.00 0.00 0.00 18 1015.4
20260903041536 73 187 0.9 4.3 0.00 0.00 0.00 18 1015.4
20260903040041 74 0 0.0 3.5 0.00 0.00 0.00 18 1015.3
20260903034539 74 147 2.6 7.8 0.00 0.00 0.00 17 1015.3
20260903033040 74 0 0.0 6.1 0.00 0.00 0.00 20 1015.3
20260903031534 74 0 0.9 7.0 0.00 0.00 0.00 19 1015.1
20260903030037 74 140 0.9 4.3 0.00 0.00 0.00 20 1015.0
20260903024543 74 0 0.9 6.1 0.00 0.00 0.00 21 1014.7
20260903023036 74 142 1.7 7.0 0.00 0.00 0.00 22 1014.6
20260903021538 74 215 0.9 4.3 0.00 0.00 0.00 21 1014.4
20260903020035 75 221 0.9 7.8 0.00 0.00 0.00 20 1014.7
20260903014542 75 0 1.7 7.8 0.00 0.00 0.00 23 1014.6
20260903013036 75 0 0.0 4.3 0.00 0.00 0.00 25 1014.7
20260903011537 76 0 0.0 4.3 0.00 0.00 0.00 25 1014.9
20260903010035 76 0 0.0 3.5 0.00 0.00 0.00 21 1015.1
20260903004538 77 0 0.0 2.6 0.00 0.00 0.00 22 1015.0
20260903003035 78 146 0.9 6.1 0.00 0.00 0.00 20 1015.3
20260903001539 79 0 0.9 6.1 0.00 0.00 0.00 20 1015.3
20260903000036 79 207 2.6 10.4 0.00 0.00 0.00 20 1015.1
20260902234537 79 226 0.9 5.2 0.00 0.00 0.00 21 1015.2
20260902233034 79 142 2.6 9.6 0.00 0.00 0.00 19 1015.3
20260902231534 78 184 2.6 7.8 0.00 0.00 0.00 19 1015.5
20260902230034 79 152 2.6 8.7 0.00 0.00 0.00 21 1015.7
20260902224543 79 142 2.6 12.2 0.00 0.00 0.00 20 1015.4
20260902223036 81 137 2.6 13.9 0.00 0.00 0.00 19 1015.4
20260902221536 80 147 2.6 10.4 0.00 0.00 0.00 23 1015.6
20260902220036 80 213 2.6 7.8 0.00 0.00 0.00 22 1015.8
20260902214539 80 175 3.5 15.6 0.00 0.05 0.00 24 1016.0
20260902213038 79 113 3.5 13.9 0.00 0.05 0.00 24 1015.9
20260902211536 80 269 4.3 13.9 0.00 0.05 0.00 26 1016.1
20260902210050 80 205 3.5 13.9 0.00 0.05 0.00 26 1016.1
20260902204533 80 248 5.2 17.4 0.00 0.05 0.00 24 1016.2
20260902203035 79 165 5.2 13.9 0.00 0.05 0.00 26 1016.5
20260902201538 79 16 6.1 13.9 0.00 0.05 0.00 25 1016.8
20260902200036 79 198 5.2 16.5 0.00 0.05 0.00 29 1017.1
20260902194540 79 0 3.5 13.0 0.00 0.05 0.00 29 1017.4
20260902193037 79 240 3.5 11.3 0.00 0.05 0.00 29 1017.4
20260902191538 79 118 4.3 14.8 0.00 0.05 0.00 30 1017.8
20260902190039 79 137 3.5 9.6 0.00 0.05 0.00 31 1017.8
20260902184537 78 220 3.5 13.9 0.00 0.05 0.00 34 1017.9
20260902183036 78 255 3.5 10.4 0.00 0.05 0.00 35 1017.9
20260902181536 77 254 4.3 13.9 0.00 0.05 0.00 37 1018.2
20260902180036 77 255 4.3 13.0 0.00 0.05 0.00 37 1018.2
20260902174537 74 0 2.6 11.3 0.00 0.05 0.00 42 1018.5
20260902173039 73 196 1.7 6.1 0.00 0.05 0.00 44 1018.5
20260902171536 73 139 1.7 8.7 0.00 0.05 0.00 45 1018.4
20260902170036 74 175 2.6 8.7 0.00 0.05 0.00 43 1018.2